Location: Unspecified
(0.0000°N, 0.0000°E)
Time: 23:03:58
(UTC+01:00)

Palapa 6 Rocket - Visible Passes

Search period start: 22 March 2017 00:00
Search period end: 01 April 2017 01:00
Orbit: 485 x 1221 km, 22.7° (Epoch: 21 March)

Date Brightness Start Highest point End Pass type
(mag) Time Alt. Az. Time Alt. Az. Time Alt. Az.
22 Mar 5.6 20:14:35 10° NNW 20:18:08 15° NNE 20:20:16 13° NE visible
23 Mar 5.5 19:59:40 10° NNW 20:04:02 18° NNE 20:07:12 12° NE visible
23 Mar 6.1 21:48:02 10° NW 21:49:08 15° NW 21:49:08 15° NW visible
24 Mar 5.5 19:44:51 10° NNW 19:49:55 21° NNE 19:54:10 11° ENE visible
24 Mar 5.6 21:33:27 10° NW 21:36:05 24° NW 21:36:05 24° NW visible
25 Mar 5.4 19:30:03 10° NW 19:35:45 24° NNE 19:40:44 10° ENE visible
25 Mar 4.9 21:18:52 10° WNW 21:23:05 37° NW 21:23:05 37° NW visible
26 Mar 4.1 22:04:18 10° WNW 22:10:05 59° NNW 22:10:05 59° NNW visible
27 Mar 3.7 21:49:45 10° WNW 21:56:51 80° NNE 21:57:06 79° ENE visible
28 Mar 3.9 21:35:12 10° WNW 21:42:35 90° SSW 21:44:08 55° ESE visible
29 Mar 4.1 21:20:41 10° WNW 21:28:16 80° SSW 21:31:09 36° ESE visible
29 Mar 6.5 23:11:53 10° W 23:13:05 14° WSW 23:13:05 14° WSW visible
30 Mar 5.3 06:34:28 10° S 06:35:35 11° SSE 06:36:43 10° SE visible
30 Mar 4.3 21:06:12 10° WNW 21:13:55 72° SSW 21:18:11 24° SE visible
30 Mar 6.2 22:57:37 10° WSW 23:00:06 18° WSW 23:00:06 18° WSW visible
31 Mar 5.2 06:21:27 13° SSE 06:21:34 13° SSE 06:23:19 10° SE visible
31 Mar 4.5 20:51:44 10° WNW 20:59:32 65° SSW 21:05:10 16° SE visible
31 Mar 5.9 22:43:23 10° WSW 22:47:05 21° SW 22:47:05 21° SW visible
